• Processing (Info)

  • MPEC 2006-Y28 : 2006 YV1

    The following Minor Planet Electronic Circular may be linked-to from your own Web pages, but must not otherwise be redistributed electronically.

    A form allowing access to any MPEC is at the bottom of this page.


    Read MPEC 2006-Y27 Read MPEC 2006-Y29


    M.P.E.C. 2006-Y28                                Issued 2006 Dec. 20, 22:14 UT
    
         The Minor Planet Electronic Circulars contain information on unusual
             minor planets and routine data on comets.  They are published
       on behalf of Commission 20 of the International Astronomical Union by the
              Minor Planet Center, Smithsonian Astrophysical Observatory,
                              Cambridge, MA 02138, U.S.A.
    
                 Prepared using the Tamkin Foundation Computer Network
    
                                  MPC@CFA.HARVARD.EDU
              URL http://cfa-www.harvard.edu/iau/mpc.html  ISSN 1523-6714
    
                                       2006 YV1
    
    Observations:
         K06Y01V* C2006 12 20.31992 08 44 03.33 +41 38 16.1          18.1 V EY028703
         K06Y01V  C2006 12 20.32713 08 43 57.72 +41 38 03.9          17.9 V EY028703
         K06Y01V  C2006 12 20.33425 08 43 52.17 +41 37 51.6          17.5 V EY028703
         K06Y01V  C2006 12 20.34145 08 43 46.52 +41 37 36.6          17.9 V EY028703
         K06Y01V  C2006 12 20.47905 08 41 59.10 +41 33 06.8          18.4 V EY028703
         K06Y01V  C2006 12 20.48258 08 41 56.36 +41 32 59.8          18.5 V EY028703
         K06Y01V  C2006 12 20.48963 08 41 50.92 +41 32 45.2          18.3 V EY028703
         K06Y01V  C2006 12 20.85776 08 37 26.50 +41 19 37.9          18.1 V EY028151
         K06Y01V  C2006 12 20.85825 08 37 26.16 +41 19 37.3          18.4 V EY028151
         K06Y01V  C2006 12 20.85949 08 37 25.23 +41 19 35.2          18.5 V EY028151
         K06Y01V  C2006 12 20.86072 08 37 24.25 +41 19 33.0          18.3 V EY028151
         K06Y01V  C2006 12 20.87567 08 37 13.53 +41 19 06.3          17.9 R EY028473
         K06Y01V  C2006 12 20.88620 08 37 05.85 +41 18 47.5          18.1 R EY028473
         K06Y01V  C2006 12 20.88766 08 37 04.77 +41 18 42.8          18.3 R EY028143
         K06Y01V  C2006 12 20.89063 08 37 02.60 +41 18 37.1          18.5 R EY028143
         K06Y01V  C2006 12 20.89162 08 37 01.81 +41 18 37.8          18.0 R EY028473
         K06Y01V  C2006 12 20.89812 08 36 57.00 +41 18 25.7          18.0 R EY028473
    
    Observer details:
    143 Gnosca.  Observer S. Sposetti.  0.40-m f/4 reflector + CCD.
    151 Eschenberg Observatory, Winterthur.  Observer M. Griesser.  0.40-m f/5.9
        Hypergraph + CCD.
    473 Remanzacco.  Observers G. Sostero, E. Guido.  0.45-m f/4.4 Newtonian
        reflector + CCD.
    703 Catalina Sky Survey.  Observer R. A. Kowalski.  Measurers E. C. Beshore,
        E. J. Christensen, G. J. Garradd, A. R. Gibbs, A. D. Grauer, R. E. Hill,
        R. A. Kowalski, S. M. Larson, R. H. McNaught.  0.68-m Schmidt + CCD.
    
    Orbital elements:
    2006 YV1                                                 Earth MOID = 0.0516 AU
    Epoch 2007 Apr. 10.0 TT = JDT 2454200.5                 MPC
    M 109.89730              (2000.0)            P               Q
    n   0.62511517     Peri.   49.08028     +0.99522571     +0.07219926
    a   1.3546570      Node   306.67805     -0.09386385     +0.89242826
    e   0.4864502      Incl.    4.69705     +0.02674643     +0.44537520
    P   1.58           H   21.0           G   0.15           U   9
    Residuals in seconds of arc
    061220 703  0.8-  0.8-    061220 703  0.7-  0.5+    061220 473  0.3+  0.3-
    061220 703  0.6-  0.2+    061220 151  0.5-  0.1-    061220 143  0.9-  0.0
    061220 703  0.4-  1.0+    061220 151  0.4-  0.2+    061220 143  1.0-  0.1-
    061220 703  0.7-  0.7-    061220 151  0.7-  0.4+    061220 473  0.6-  0.3+
    061220 703  0.9-  0.0     061220 151  1.6-  0.5+    061220 473  1.1-  0.5+
    061220 703  0.9-  0.4+    061220 473  0.1+  1.3-
    
    Ephemeris:
    2006 YV1                 a,e,i = 1.35, 0.49, 5                   q = 0.6957
    Date    TT    R. A. (2000) Decl.     Delta      r     Elong.  Phase     V
    2006 12 21    08 35.68   +41 15.3    0.136    1.094   142.1    33.5    18.3
    2006 12 31    07 14.86   +35 04.9    0.197    1.175   165.8    11.9    18.5
    2007 01 10    06 39.11   +30 24.5    0.276    1.254   167.0    10.1    19.3
    2007 01 20    06 23.52   +27 22.2    0.369    1.329   155.5    17.9    20.4
    2007 01 30    06 18.87   +25 23.7    0.476    1.400   144.6    24.0    21.2
    2007 02 09    06 20.90   +24 04.3    0.593    1.467   135.0    28.4    22.0
    
    Timothy B. Spahr             (C) Copyright 2006 MPC           M.P.E.C. 2006-Y28
    

    Read MPEC 2006-Y27 Read MPEC 2006-Y29


    MPEC number:

    Enter an MPEC number in one of the following forms:

    • 1997-B01 (the full form)
    • J97B01 (the packed version of the full form)
    • B01 (the abbreviated form)